Location: Mount Cross
(36.6390°N, 79.4878°W)
Time: 18:15:54
(UTC+00:00)

Courier 1B Rocket - Pass Details

Date: 28 March 2023
Orbit: 920 x 1202 km, 28.2° (Epoch: 08 June)

Event Time Altitude Azimuth Distance (km) Brightness Sun altitude
Rises 00:52:30 0° 243° (WSW) 3,921 8.9 -16.0°
Reaches altitude 10° 00:55:33 10° 235° (SW) 2,919 8.0 -16.5°
Maximum altitude 01:01:58 37° 171° (S) 1,546 5.8 -17.8°
Enters shadow 01:04:40 27° 128° (SE) 1,833 5.9 -18.3°
Drops below altitude 10° 01:07:59 10° 106° (ESE) 2,734 - -18.9°
Sets 01:10:46 0° 98° (E) 3,646 - -19.4°
